Regional Weather Roundup
Issued by NWS Pendleton, OR

Home | Current Version | Previous Version | Text Only | Print | Product List | Glossary On
Versions: 1 2 3 4 5 6 7 8 9 10 11 12 13 14 15 16 17 18 19 20 21 22 23 24 25 26 27 28 29 30 31 32 33 34 35 36 37 38 39 40 41 42 43 44 45 46 47 48 49 50
000
ASUS46 KPDT 301825
RWRPDT
PENDLETON REGIONAL WEATHER ROUNDUP
NATIONAL WEATHER SERVICE PENDLETON OREGON
1100 AM PDT TUE SEP 30 2014

NOTE: FAIR INDICATES FEW OR NO CLOUDS BELOW 12,000 FEET WITH NO
SIGNIFICANT WEATHER AND/OR OBSTRUCTIONS TO VISIBILITY.

# INDICATES UNOFFICIAL STATION AND DATA

WAZ520-301910-
EAST SLOPES OF WASHINGTON CASCADES

CITY            SKY/WX      TMP DP  RH  WIND    PRES   REMARKS
#BUMPING DAM    N/A         49  N/A N/A S5      N/A
#CLE ELUM HS    N/A         54  42  64  W7      29.97R
#CLE ELUM 2NW   N/A         54  40  59  SW5     N/A
#CLE ELUM LAKE  N/A         54  40  59  W3      29.95R
#CLIFFDEL 2NW   N/A         50  41  71  N7      N/A
#GLENWOOD       N/A         61  45  56  S5      29.97F
#MANASTASH CYN  N/A         54  38  55  N1      29.98R
#NELSON         N/A         56  44  64  W1      29.99R
#NELSON 3SW     N/A         51  40  66  CALM    30.17R
#NILE           N/A         56  41  57  S2      29.22R
#RONALD 2NW     N/A         54  42  64  W3      29.89R
#SNOWDEN        N/A         58  33  39  NW5     N/A
#TEANAWAY 4NE   N/A         59  44  57  CALM    N/A
#TROUT LAKE 1NE N/A         55  46  72  NW12    30.04R
$$

WAZ521-301910-
SIMCOE HIGHLANDS

CITY            SKY/WX      TMP DP  RH  WIND    PRES   REMARKS
#BICKLETON HS   N/A         56  29  35  W10     30.09S
#CENTERVILLE 4W N/A         59  46  62  NW12    29.79R
#CENTERVILLE 1SWN/A         58  44  60  W16     29.98S
#GOLDENDALE     N/A         59  43  55  W9      N/A
#GOLDENDALE 1NE N/A         58  37  45  SW10    N/A
#GOLDENDALE 1S  N/A         59  46  62  W7      30.01R
#GOLDENDALE 5WNWN/A         60  43  53  W17     29.99R
#GOODNOE HILLS  N/A         63  46  54  W24G33  29.96S
#LYLE 6NE       N/A         57  46  67  S15     29.99S
$$

WAZ026-301910-
KITTITAS VALLEY

CITY            SKY/WX      TMP DP  RH  WIND    PRES   REMARKS
ELLENSBURG AP   SUNNY       62  41  46  W32G41  30.00R
6HR MIN TEMP:   53; 6HR MAX TEMP:   62;

#ELLENSBURG CWU N/A         59  42  53  NW22    29.92S
#ELLENSBURG 3NE N/A         57  43  59  NW18G31 29.98S
#ELLENSBURG     N/A         61  44  53  NW8     N/A
#KITTITAS 3S    N/A         59  46  62  W10     29.94R
#THORP 6N       N/A         53  42  66  NW15G35 29.96R
$$

WAZ027-301910-
YAKIMA VALLEY

CITY            SKY/WX      TMP DP  RH  WIND    PRES   REMARKS
SUNNYSIDE AP    SUNNY       63  41  44  W6      30.00R
YAKIMA AIRPORT  PTCLDY      67  41  39  VRB5    29.99S
6HR MIN TEMP:   43; 6HR MAX TEMP:   67;

YAKIMA-VAGABOND SUNNY       63  38  39  W9      30.00S
#COWICHE 1N     N/A         58  43  57  SE2     30.15R
#DONALD 2NE     N/A         74  34  23  NE1     30.32R
#GRANDVIEW      N/A         64  39  40  SW1     29.99S
#MABTON         N/A         65  43  45  NW1     29.99S
#MOXEE 2E       N/A         65  26  23  SW2     29.92S
#NACHES 2SW     N/A         63  46  54  W2      29.99S
#OUTLOOK DOT    N/A         N/A N/A N/A W2      N/A
#SELAH 8E       N/A         61  36  39  W7      N/A
#TERRACE HTS    N/A         67  43  42  NW2     29.93R
#TOPPENISH      N/A         64  42  45  SW2     29.90R
#WAPATO 4NE     N/A         74  34  23  NE1     30.32R
#WEST VALLEY    N/A         64  42  45  W1      29.94S
#W YAKIMA       N/A         65  40  40  NW3     29.96R
#WHITE SWAN 5E  N/A         67  43  42  CALM    29.97S
#WILEY CITY 3W  N/A         63  44  50  NW1     29.99R
$$

WAZ028-301910-
LOWER COLUMBIA BASIN...WASHINGTON

CITY            SKY/WX      TMP DP  RH  WIND    PRES   REMARKS
HANFORD         MOSUNNY     67  36  32  W16G24  29.96R
PASCO           SUNNY       68  41  37  W12     29.99R
6HR MIN TEMP:   51; 6HR MAX TEMP:   68;

PROSSER AWOS    N/A         66  43  43  NW3     30.03R
RICHLAND AWOS   SUNNY       68  39  35  SW12    29.98S
#BASIN CITY 5SW N/A         66  44  45  W15     29.97S
#BENTON CITY    N/A         63  41  44  W7      29.89R
#CONNELL 5N     N/A         63  44  50  SW9     29.93S
#CONNELL 5NW    N/A         64  45  50  W8      29.90S
#ELTOPIA        N/A         67  45  45  W6      29.92S
#ELTOPIA 6NW    N/A         64  43  46  W15G24  28.94S
#KENNEWICK 3S   N/A         65  43  45  W3      29.98R
#PASCO-BROADMOORN/A         70  41  35  SW8     29.86S
#PATERSON       N/A         66  43  43  W10     29.97S
#PROSSER        N/A         63  38  39  SW3     29.98R
#SAGEMOOR 2W    N/A         64  44  48  E12     29.82S
#TOUCHET 2S     N/A         64  46  52  SW15    29.96S
#WEST PASCO     N/A         67  46  47  CALM    29.98S
$$

WAZ029-301910-
FOOTHILLS OF THE BLUES...WASHINGTON

CITY            SKY/WX      TMP DP  RH  WIND    PRES   REMARKS
WALLA WALLA AP  CLOUDY      61  43  51  SW12    30.01S
6HR MIN TEMP:   54; 6HR MAX TEMP:   61;

#DAYTON SCHOOL  N/A         56  41  57  W5      29.99R
#LOWDEN 2SE     N/A         65  47  52  W14     29.95F
#PLEASANT VIEW 1N/A         60  45  58  SW8G24  29.97S
#PRESCOTT       N/A         62  47  58  W5      29.96S
#SUDBURY        N/A         66  N/A N/A W3      N/A
#WHITMAN COLLEGEN/A         62  43  50  SW8     30.02S
#WAITSBURG 8N   N/A         60  36  41  S10     29.91S
#WALLA WALLA 5E N/A         61  43  51  W7      N/A
#WALLA WALLA U  N/A         64  46  52  W7      29.96F
#WHITMAN MISSIONN/A         64  46  52  W13     29.98S
$$

WAZ030-301910-
BLUE MOUNTAINS...WASHINGTON

CITY            SKY/WX      TMP DP  RH  WIND    PRES   REMARKS
$$

ORZ009-041-WAZ024-301910-
COLUMBIA RIVER GORGE

CITY            SKY/WX      TMP DP  RH  WIND    PRES   REMARKS
HOOD RIVER AP   SUNNY       63  48  58  SW7     30.07R
THE DALLES AP   SUNNY       66  45  47  W21G37  30.03R
6HR MIN TEMP:   58; 6HR MAX TEMP:   66;

#ARLINGTON AIRPON/A         63  46  54  W20     29.97S
#ARLINGTON HS   N/A         66  45  47  W12     29.91S
#LYLE           N/A         62  50  65  W25     30.06
#MARYHILL 2W    N/A         62  48  60  W10     N/A
#MOSIER 1S      N/A         60  38  44  CALM    N/A
#MURDOCK        N/A         64  52  65  NW22G36 30.05S
#RUFUS DOT      N/A         65  45  48  W6      N/A

$$

ORZ510-301910-
NORTH CENTRAL OREGON

CITY            SKY/WX      TMP DP  RH  WIND    PRES   REMARKS
#CHENOWITH 1W   N/A         56  45  66  NW29    N/A
#COW CYN RST AREN/A         55  40  57  SW10    N/A
#DUFUR 9E       N/A         55  43  64  NW23G35 30.10R
#GRASS VALLEY   N/A         58  42  55  W2      N/A
#GRASS VALLEY 1SN/A         56  42  59  NW3     30.07R
#KENT DOT       N/A         54  35  48  NW7     N/A
#MAUPIN SCHOOL  N/A         65  44  46  SW5     28.93S
#MORO SCHOOL    N/A         58  47  67  W15     30.06S
#SHANIKO 5WSW   N/A         53  34  48  W15     N/A
#SHANIKO 4NW    N/A         50  38  63  W12     30.08R
#TYGH VALLEY 2NEN/A         65  43  45  S1      30.02S
#WAPANITIA AIRPON/A         59  42  53  W15     30.03S
#WASCO 5NE      N/A         61  45  56  W10     30.00S
$$

ORZ511-301910-
CENTRAL OREGON

CITY            SKY/WX      TMP DP  RH  WIND    PRES   REMARKS
BEND AIRPORT    SUNNY       55  36  49  N12     30.12S
MADRAS AIRPORT  SUNNY       57  37  47  NW7     30.11R
REDMOND AIRPORT SUNNY       58  36  44  NW14    30.10R
6HR MIN TEMP:   43; 6HR MAX TEMP:   58;

#BEND 6E        N/A         55  35  47  CALM    30.00F
#BEND 1SW       N/A         51  37  59  S2      N/A
#BEND-KIM LN    N/A         55  40  57  CALM    30.08S
#CROOKED RVR RANN/A         58  39  49  N7      30.03S
#CULVER         N/A         58  39  49  N2      30.06R
#LAKE BILLY CHINN/A         63   4   9  CALM    30.13F
#POWELL BUTTE 3EN/A         54  43  66  W8      N/A
#POWELL BUTTE   N/A         58  43  57  N6      29.73S
#PRINEVILLE 3N  N/A         56  43  62  CALM    30.01F
#WARM SPRINGS   N/A         63  42  46  SW9     30.04F


ORZ509-301910-
EAST SLOPES OF OREGON CASCADES

CITY            SKY/WX      TMP DP  RH  WIND    PRES   REMARKS
#BLUE BOX PASS  N/A         43  -7  11  SW10    N/A
#CAMP SHERMAN   N/A         61  38  42  N3      30.06F
#LA PINE DOT    N/A         57  33  40  W10     N/A
#LA PINE 4NW    N/A         51  38  61  SW2     30.08R
#LAVA BUTTE DOT N/A         51  33  50  W1      N/A
#SISTERS AIRPOR N/A         54  44  69  N9      29.91S
#SISTERS ODOT   N/A         54  N/A N/A S7      N/A
#SISTERS 3N     N/A         54  37  52  SW3     N/A
#SUNRIVER       N/A         54  40  59  S1      29.93R
#SUNRIVER AP    N/A         52  39  61  SW2     30.01R
#SUTTLE LK DOT  N/A         45  40  82  W35G48  N/A    WCI 35
#TUMALO 3W      N/A         54  38  55  NW10    29.92R
#WANOGA BUTTE D N/A         43  33  67  E2      N/A

$$

ORZ044-301910-
LOWER COLUMBIA BASIN...OREGON

CITY            SKY/WX      TMP DP  RH  WIND    PRES   REMARKS
HERMISTON       SUNNY       66  43  43  W13     30.00S
6HR MIN TEMP:   52; 6HR MAX TEMP:   66;

#BOARDMAN SCHOOLN/A         65  52  63  W15G24  29.97S
#BOARDMAN 3W    N/A         68  47  47  SW15    29.71
#BOARDMAN 8SW   N/A         66  48  52  W13     29.99S
#ECHO 8SW       N/A         65  43  45  W13     29.98S
#IONE SCHOOL    N/A         63  43  48  W15G26  30.02R
#IRRIGON 4NW    N/A         67  47  49  S15     N/A
#UMATILLA SCHOOLN/A         66  51  58  W7      30.00F
#UMATILLA       N/A         66  45  47  SW7     29.98S
$$

ORZ507-301910-
NORTHERN FOOTHILLS OF THE BLUES

CITY            SKY/WX      TMP DP  RH  WIND    PRES   REMARKS
PENDLETON AIRPT MOSUNNY     63  39  41  W20     30.02R
6HR MIN TEMP:   53; 6HR MAX TEMP:   63;

#ADAMS 3WNW     N/A         60  43  53  W15     29.97S
#ATHENA         N/A         60  42  51  W8      29.99F
#CAYUSE         N/A         59  43  55  W13     29.98S
#HELIX SCHOOL   N/A         59  44  57  W9G24   29.97S
#HELIX 3N       N/A         58  43  57  W15     29.98S
#HOLDMAN 5SE    N/A         62  45  54  W12     30.02S
#HOLDMAN 6E     N/A         59  43  55  NE10    29.80S
#M-F GROVE ELEM N/A         62  40  44  SW8     29.99S
#M-FREEWATER 5SEN/A         60  44  55  SW9G25  30.01R
#PENDLETON DNTN N/A         64  38  38  W3      28.82S
#PDT AQUATIC CTRN/A         63  42  46  W8      30.00S
#PENDLETON 5NE  N/A         62  44  52  CALM    29.98S
#PDT SUNRIDGE   N/A         61  42  50  W9      30.03S
#PENDLETON 7NW  N/A         62  45  54  W16     31.74S
#PILOT ROCK     N/A         59  39  47  S2      30.05R
#TUTUILLA       N/A         62  42  48  W10     30.00F
#UMAPINE 2E     N/A         65  46  50  SW9     29.96S

$$

ORZ508-301910-
SOUTHERN FOOTHILLS OF THE BLUES

CITY            SKY/WX      TMP DP  RH  WIND    PRES   REMARKS
LEXINGTON       PTCLDY      63  39  41  W23G28  30.05S
#AJAX           N/A         59  37  44  W10     30.00R
#CONDON SCHOOL  N/A         54  40  59  CALM    30.02S
#CONDON 5W      N/A         52  38  59  W17G29  30.04S
#FOSSIL SCHOOL  N/A         55  40  57  W5      30.04S
#HEPPNER EOC    N/A         57  40  53  W16G26  29.96R
#HEPPNER 4NE    N/A         54  40  59  W15G25  29.99R
#LEXINGTON 2SE  N/A         62  42  48  W12G25  30.00R
#MIKKALO        N/A         61  39  44  W23G37  30.03S
#OLEX 4N        N/A         62  45  54  W22G32  30.02R
#RUGGS 5NE      N/A         55  37  51  W18     30.20S
#RUGGS 2SW      N/A         56  39  53  W16     30.02R

$$

ORZ502-503-301910-
BLUE MOUNTAINS

CITY            SKY/WX      TMP DP  RH  WIND    PRES   REMARKS
MEACHAM         MOCLDY      51  41  68  VRB5    30.03F
6HR MIN TEMP:   44; 6HR MAX TEMP:   52;

#BATTLE MTN DOT N/A         49  41  74  NW2     N/A
#HARDMAN 10S    N/A         49  37  63  W1      30.11S
#HEPPNER 15SE   N/A         48  39  71  W2      29.96S
#LADD CYN SMT   N/A         53  31  43  NW14    N/A
#LADD CREEK ODOTN/A         55  37  51  SE1     N/A
#LONG CREEK HS  N/A         49  41  74  NW8     30.03R
#N POWDER DOT   N/A         55  37  51  N13     N/A
#PIKES PEAK     N/A         48  40  74  SW26G35 27.99S WCI 40
#TOLLGATE       N/A         39  38  96  SW6     29.95R
#TROY SCHOOL    N/A         57  44  62  E2      29.83R
#UKIAH          N/A         52  39  61  NW7     29.99F
#WESTON 4E      N/A         50  41  71  SW7     29.93R
$$

ORZ505-301910-
JOHN DAY BASIN

CITY            SKY/WX      TMP DP  RH  WIND    PRES   REMARKS
JOHN DAY        CLOUDY      53  38  57  W8      30.08S
#JOHN DAY KJDY  N/A         57  41  55  W1      30.26R
#DAYVILLE SCHOOLN/A         60  34  37  NW7     30.03F
#MONUMENT HS    N/A         60  38  44  SW7     30.06F
#MT. VERNON 5SE N/A         49  37  63  CALM    30.03S
#WINLOCK        N/A         56  38  51  N12     30.14S
$$

ORZ506-301910-
OCHOCO AND JOHN DAY HIGHLANDS

CITY            SKY/WX      TMP DP  RH  WIND    PRES   REMARKS
#BUCK CREEK DOT N/A         48  41  77  W12     N/A    WCI 43
#HORSE RIDGE DO N/A         51  34  52  W7      N/A
#KEYES SMT DOT  N/A         49  -53  1  NW10    N/A
#PAULINA SCHOOL N/A         53  35  50  W2      30.09S
#PINE MTN OBS   N/A         41  34  76  NW7     N/A
#PRAIRIE CITY   N/A         51  40  66  NW2     30.09F
#SENECA         N/A         49  N/A N/A W6      N/A
#SENECA 9NW     N/A         50  35  56  S2      29.94S
$$

ORZ049-301910-
GRANDE RONDE VALLEY

CITY            SKY/WX      TMP DP  RH  WIND    PRES   REMARKS
LA GRANDE       MOCLDY      57  34  42  NW13    30.02S
#COVE           N/A         52  46  80  N2      29.95S
#COVE SCHOOL    N/A         51  46  83  CALM    30.01S
#COVE 6NW       N/A         51  41  68  N3      30.03R
#ELGIN 3N       N/A         53  39  59  S2      29.76R
#ELGIN 1E       N/A         53  41  64  CALM    N/A
#IMBLER SCHOOL  N/A         52  40  63  SE3     29.99S
#LADD CYN DOT   N/A         55  37  51  NW6     N/A
#UNION 1S       N/A         55  43  64  N6      29.90S
$$

ORZ050-301910-
WALLOWA COUNTY

CITY            SKY/WX      TMP DP  RH  WIND    PRES   REMARKS
JOSEPH AIRPORT  CLOUDY      52  36  54  N14     30.02R
#ENTERPRISE AP  N/A         50  33  52  NW15G31 29.96R
#ENTERPRISE HS  N/A         51  38  61  W9      30.03R
#IMNAHA SCHOOL  N/A         57  39  51  NE3     29.91F
#IMNAHA 10S     N/A         53  42  66  NE1     30.00F
#JOSEPH 3N      N/A         51  39  63  N10     30.03S
#JOSEPH 3W      N/A         48  34  58  N5      29.87R
#LOSTINE        N/A         52  39  61  NW1     29.78R
#MT HOWARD 8000 N/A         31  29  92  CALM    30.03R
#PROMISE 1S     N/A         47  41  79  NE2     30.09R
#SHEEP RDG 7000 N/A         32  30  92  CALM    29.98R
#WALLOWA SCHOOL N/A         51  41  68  W1      30.89R



$$



USA.gov is the U.S. government's official web portal to all federal, state and local government web resources and services.